Shelbyville, IN

12:07 PM EDT on April 19, 2018 (GMT -0400)
Shelbyville Municipal

Weather History for KGEZ - August, 2012

Change the Weather History Date:

Tuesday, August 28, 2012

  Actual Average Record
Temperature  
Mean Temperature 72 °F 71 °F  
Max Temperature 86 °F 83 °F 96 °F (2007)
Min Temperature 58 °F 60 °F 51 °F (2010)
Degree Days  
Heating Degree Days 0 0  
Month to date heating degree days 0 0  
Since 1 June heating degree days 15 16  
Since 1 July heating degree days 0 1  
Cooling Degree Days 7 6  
Month to date cooling degree days 246 213  
Year to date cooling degree days 1274 786  
Since 1 June cooling degree days 1034 705  
Growing Degree Days 22 (Base 50)    
Moisture  
Dew Point 59 °F    
Average Humidity 65    
Maximum Humidity 90    
Minimum Humidity 40    
Precipitation  
Precipitation 0.00 in 0.14 in 0.67 in (2006)
Month to date precipitation 2.96 2.99  
Year to date precipitation 16.72 29.88  
Sea Level Pressure  
Sea Level Pressure 30.04 in    
Wind  
Wind Speed 6 mph (North)    
Max Wind Speed 15 mph    
Max Gust Speed 22 mph    
Visibility 10 miles    
Events      
T = Trace of Precipitation, MM = Missing Value Source: NWS Daily Summary

Daily Weather History Graph

Daily Weather History Graph

Search for Another Location

Airport or City:

Astronomy

Aug. 28, 2012 Rise Set
Actual Time 7:08 AM EDT 8:19 PM EDT
Civil Twilight 6:40 AM EDT 8:47 PM EDT
Nautical Twilight 6:07 AM EDT 9:20 PM EDT
Astronomical Twilight 5:32 AM EDT 9:55 PM EDT
Moon 6:21 PM EDT (8/28) 3:57 AM EDT (8/28)
Length of Visible Light 14h 07m
Length of Day
13h 11m
Waxing Gibbous, 90% of the Moon is Illuminated
Aug 28
Waxing Gibbous
Aug 31
Full
Sep 8
Last Quarter
Sep 15
New
Sep 22
First Quarter

Hourly Weather History & Observations

Time (EDT) Temp. Heat Index Dew Point Humidity Pressure Visibility Wind Dir Wind Speed Gust Speed Precip Events Conditions
12:53 AM 64.9 °F - 61.0 °F 87% 30.03 in 10.0 mi Calm Calm - N/A   Clear
1:53 AM 64.9 °F - 59.0 °F 81% 30.04 in 10.0 mi NNW 5.8 mph - N/A   Clear
2:53 AM 64.0 °F - 59.0 °F 84% 30.03 in 10.0 mi North 4.6 mph - N/A   Clear
3:53 AM 62.1 °F - 57.9 °F 86% 30.03 in 10.0 mi Calm Calm - N/A   Clear
4:53 AM 61.0 °F - 57.9 °F 90% 30.04 in 10.0 mi NNW 3.5 mph - N/A   Clear
5:53 AM 62.1 °F - 57.9 °F 86% 30.04 in 10.0 mi North 3.5 mph - N/A   Clear
7:53 AM 61.0 °F - 57.9 °F 90% 30.07 in 9.0 mi North 5.8 mph - N/A   Clear
8:53 AM 66.0 °F - 60.1 °F 81% 30.07 in 10.0 mi North 4.6 mph - N/A   Clear
9:53 AM 72.0 °F - 61.0 °F 68% 30.07 in 10.0 mi North 4.6 mph - N/A   Clear
11:53 AM 80.1 °F 80.9 °F 60.1 °F 50% 30.07 in 10.0 mi NNE 8.1 mph - N/A   Clear
12:53 PM 82.9 °F 83.2 °F 60.1 °F 46% 30.07 in 10.0 mi NNE 8.1 mph - N/A   Clear
1:53 PM 84.0 °F 84.0 °F 60.1 °F 44% 30.06 in 10.0 mi North 9.2 mph - N/A   Clear
2:53 PM 84.0 °F 83.8 °F 59.0 °F 43% 30.04 in 10.0 mi North 11.5 mph 17.3 mph N/A   Clear
3:53 PM 84.9 °F 84.2 °F 57.9 °F 40% 30.02 in 10.0 mi North 9.2 mph - N/A   Clear
4:53 PM 84.9 °F 83.9 °F 57.0 °F 38% 30.01 in 10.0 mi North 9.2 mph - N/A   Clear
5:53 PM 84.9 °F 84.2 °F 57.9 °F 40% 30.01 in 10.0 mi North 10.4 mph - N/A   Clear
6:53 PM 82.9 °F 82.8 °F 59.0 °F 44% 30.00 in 10.0 mi North 6.9 mph - N/A   Clear
7:53 PM 79.0 °F - 59.0 °F 50% 30.01 in 10.0 mi NNE 4.6 mph - N/A   Clear
8:53 PM 73.9 °F - 59.0 °F 59% 30.01 in 10.0 mi NNE 5.8 mph - N/A   Clear
9:53 PM 69.1 °F - 61.0 °F 75% 30.02 in 10.0 mi NE 3.5 mph - N/A   Clear
10:53 PM 69.1 °F - 60.1 °F 73% 30.02 in 10.0 mi North 5.8 mph - N/A   Clear
11:53 PM 64.9 °F - 60.1 °F 84% 30.02 in 10.0 mi North 3.5 mph - N/A   Clear